Time,TemperatureF,DewpointF,PressureIn,WindDirection,WindDirectionDegrees,WindSpeedMPH,WindSpeedGustMPH,Humidity,HourlyPrecipIn,Conditions,Clouds,dailyrainin,SoftwareType,DateUTC
2013-09-03 00:14:00,72.0,71.0,29.74,SSW,213,1.0,8.0,98,0.00,,,0.00,,2013-09-03 04:14:00,
2013-09-03 00:25:00,72.0,71.0,29.73,SW,230,3.0,6.0,98,0.00,,,0.00,,2013-09-03 04:25:00,
2013-09-03 00:53:00,72.0,71.0,29.74,SW,235,0.0,1.0,98,0.00,,,0.00,,2013-09-03 04:53:00,
2013-09-03 01:03:00,72.0,71.0,29.74,SW,235,0.0,1.0,98,0.00,,,0.00,,2013-09-03 05:03:00,
2013-09-03 01:12:00,72.0,71.0,29.74,SW,235,0.0,1.0,98,0.00,,,0.00,,2013-09-03 05:12:00,
2013-09-03 01:23:00,72.0,71.0,29.73,SW,236,1.0,6.0,98,0.00,,,0.00,,2013-09-03 05:23:00,
2013-09-03 01:34:00,72.0,71.0,29.73,SW,236,1.0,6.0,98,0.00,,,0.00,,2013-09-03 05:34:00,
2013-09-03 01:52:00,72.0,71.0,29.74,West,270,0.0,4.0,98,0.00,,,0.00,,2013-09-03 05:52:00,
2013-09-03 02:02:00,72.0,71.0,29.74,West,270,0.0,4.0,98,0.00,,,0.00,,2013-09-03 06:02:00,
2013-09-03 02:12:00,72.0,71.0,29.74,West,270,0.0,4.0,98,0.00,,,0.00,,2013-09-03 06:12:00,
2013-09-03 02:22:00,72.0,71.0,29.72,SW,220,2.0,7.0,98,0.00,,,0.00,,2013-09-03 06:22:00,
2013-09-03 02:52:00,72.0,71.0,29.71,SW,229,5.0,8.0,98,0.00,,,0.00,,2013-09-03 06:52:00,
2013-09-03 03:12:00,72.0,71.0,29.71,West,263,1.0,6.0,98,0.00,,,0.00,,2013-09-03 07:12:00,
2013-09-03 03:22:00,72.0,71.0,29.70,WSW,246,4.0,11.0,98,0.00,,,0.00,,2013-09-03 07:22:00,
2013-09-03 03:53:00,72.0,71.0,29.69,SSW,203,2.0,6.0,98,0.00,,,0.00,,2013-09-03 07:53:00,
2013-09-03 04:11:00,72.0,71.0,29.69,SSW,210,4.0,9.0,98,0.00,,,0.00,,2013-09-03 08:11:00,
2013-09-03 04:22:00,71.0,70.0,29.68,SW,223,5.0,7.0,98,0.00,,,0.00,,2013-09-03 08:22:00,
2013-09-03 04:52:00,71.0,70.0,29.69,SW,217,1.0,9.0,98,0.00,,,0.00,,2013-09-03 08:52:00,
2013-09-03 05:02:00,71.0,70.0,29.69,SW,217,1.0,9.0,98,0.00,,,0.00,,2013-09-03 09:02:00,
2013-09-03 05:22:00,71.0,70.0,29.70,SW,233,2.0,10.0,98,0.00,,,0.00,,2013-09-03 09:22:00,
2013-09-03 05:43:00,71.0,71.0,29.70,SW,229,2.0,7.0,99,0.00,,,0.00,,2013-09-03 09:43:00,
2013-09-03 05:53:00,71.0,71.0,29.70,SW,229,2.0,7.0,99,0.00,,,0.00,,2013-09-03 09:53:00,
2013-09-03 06:23:00,71.0,71.0,29.71,SSW,205,1.0,7.0,99,0.00,,,0.00,,2013-09-03 10:23:00,
2013-09-03 06:31:00,70.0,70.0,29.73,West,261,0.0,7.0,99,0.00,,,0.00,,2013-09-03 10:31:00,
2013-09-03 06:53:00,70.0,70.0,29.73,West,261,0.0,7.0,99,0.00,,,0.00,,2013-09-03 10:53:00,
2013-09-03 07:03:00,70.0,70.0,29.73,West,261,0.0,7.0,99,0.00,,,0.00,,2013-09-03 11:03:00,
2013-09-03 07:12:00,70.0,70.0,29.73,West,261,0.0,7.0,99,0.00,,,0.00,,2013-09-03 11:12:00,
2013-09-03 07:23:00,70.0,70.0,29.73,West,261,0.0,7.0,99,0.00,,,0.00,,2013-09-03 11:23:00,
2013-09-03 07:31:00,71.0,71.0,29.75,West,273,0.0,7.0,100,0.00,,,0.00,,2013-09-03 11:31:00,
2013-09-03 07:52:00,71.0,71.0,29.75,West,273,0.0,7.0,100,0.00,,,0.00,,2013-09-03 11:52:00,
2013-09-03 08:02:00,71.0,71.0,29.75,West,273,0.0,7.0,100,0.00,,,0.00,,2013-09-03 12:02:00,
2013-09-03 08:12:00,71.0,71.0,29.75,West,273,0.0,7.0,100,0.00,,,0.00,,2013-09-03 12:12:00,
2013-09-03 08:22:00,71.0,71.0,29.75,West,273,0.0,7.0,100,0.00,,,0.00,,2013-09-03 12:22:00,
2013-09-03 08:52:00,72.0,72.0,29.76,SW,231,2.0,6.0,99,0.00,,,0.00,,2013-09-03 12:52:00,
2013-09-03 09:11:00,72.0,72.0,29.76,WSW,251,1.0,7.0,99,0.00,,,0.00,,2013-09-03 13:11:00,
2013-09-03 09:22:00,73.0,72.0,29.77,West,280,0.0,6.0,98,0.00,,,0.00,,2013-09-03 13:22:00,
2013-09-03 09:32:00,73.0,72.0,29.77,West,280,0.0,6.0,98,0.00,,,0.00,,2013-09-03 13:32:00,
2013-09-03 09:52:00,74.0,73.0,29.77,WSW,238,2.0,8.0,96,0.00,,,0.00,,2013-09-03 13:52:00,
2013-09-03 10:21:00,76.0,73.0,29.77,West,259,3.0,10.0,90,0.00,,,0.00,,2013-09-03 14:21:00,
2013-09-03 10:52:00,77.0,73.0,29.77,NW,304,0.0,6.0,88,0.00,,,0.00,,2013-09-03 14:52:00,
2013-09-03 11:22:00,80.0,75.0,29.77,WSW,245,1.0,9.0,84,0.00,,,0.00,,2013-09-03 15:22:00,
2013-09-03 11:34:00,80.0,75.0,29.77,WSW,245,1.0,9.0,84,0.00,,,0.00,,2013-09-03 15:34:00,
2013-09-03 11:54:00,80.0,75.0,29.77,WSW,245,1.0,9.0,84,0.00,,,0.00,,2013-09-03 15:54:00,
2013-09-03 12:14:00,80.0,74.0,29.75,SSW,204,8.0,13.0,83,0.00,,,0.00,,2013-09-03 16:14:00,
2013-09-03 12:21:00,77.0,72.0,29.75,SSW,201,4.0,16.0,85,0.00,,,0.00,,2013-09-03 16:21:00,
2013-09-03 12:24:00,79.0,74.0,29.75,SSW,211,10.0,17.0,84,0.00,,,0.00,,2013-09-03 16:24:00,
2013-09-03 12:54:00,77.0,72.0,29.75,SSW,201,4.0,16.0,85,0.00,,,0.00,,2013-09-03 16:54:00,
2013-09-03 13:03:00,77.0,72.0,29.75,SSW,201,4.0,16.0,85,0.00,,,0.00,,2013-09-03 17:03:00,
2013-09-03 13:13:00,77.0,72.0,29.75,SSW,201,4.0,16.0,85,0.00,,,0.00,,2013-09-03 17:13:00,
2013-09-03 13:52:00,79.0,74.0,29.75,SSW,209,6.0,13.0,85,0.00,,,0.00,,2013-09-03 17:52:00,
2013-09-03 14:22:00,77.0,73.0,29.74,South,186,6.0,14.0,87,0.00,,,0.00,,2013-09-03 18:22:00,
2013-09-03 14:52:00,79.0,74.0,29.72,SSW,206,9.0,17.0,84,0.00,,,0.00,,2013-09-03 18:52:00,
2013-09-03 15:11:00,77.0,73.0,29.72,SW,215,7.0,13.0,87,0.00,,,0.00,,2013-09-03 19:11:00,
2013-09-03 15:22:00,76.0,73.0,29.70,SSW,196,7.0,17.0,91,0.00,,,0.00,,2013-09-03 19:22:00,
2013-09-03 15:32:00,76.0,73.0,29.70,SSW,196,7.0,17.0,91,0.00,,,0.00,,2013-09-03 19:32:00,
2013-09-03 15:52:00,76.0,73.0,29.70,SSW,196,7.0,17.0,91,0.00,,,0.00,,2013-09-03 19:52:00,
2013-09-03 16:11:00,74.0,72.0,29.73,SW,222,7.0,13.0,95,0.00,,,0.00,,2013-09-03 20:11:00,
2013-09-03 16:22:00,74.0,72.0,29.73,SW,234,3.0,11.0,95,0.00,,,0.00,,2013-09-03 20:22:00,
2013-09-03 16:32:00,74.0,72.0,29.73,SW,234,3.0,11.0,95,0.00,,,0.00,,2013-09-03 20:32:00,
2013-09-03 16:42:00,74.0,72.0,29.73,SW,234,3.0,11.0,95,0.00,,,0.00,,2013-09-03 20:42:00,
2013-09-03 16:53:00,74.0,72.0,29.75,WSW,250,3.0,9.0,95,0.00,,,0.00,,2013-09-03 20:53:00,
2013-09-03 17:12:00,74.0,72.0,29.75,West,260,1.0,8.0,95,0.00,,,0.00,,2013-09-03 21:12:00,
2013-09-03 17:22:00,74.0,72.0,29.75,West,260,1.0,8.0,95,0.00,,,0.00,,2013-09-03 21:22:00,
2013-09-03 17:54:00,67.0,66.0,29.74,NNE,31,0.0,1.0,96,0.30,,,0.61,,2013-09-03 21:54:00,
2013-09-03 18:23:00,67.0,66.0,29.75,West,266,0.0,4.0,98,0.00,,,1.37,,2013-09-03 22:23:00,
2013-09-03 18:31:00,67.0,67.0,29.75,North,350,0.0,4.0,99,0.02,,,1.39,,2013-09-03 22:31:00,
2013-09-03 18:34:00,67.0,66.0,29.75,West,266,0.0,4.0,98,0.00,,,1.37,,2013-09-03 22:34:00,
2013-09-03 18:53:00,67.0,67.0,29.75,North,350,0.0,4.0,99,0.02,,,1.39,,2013-09-03 22:53:00,
2013-09-03 19:04:00,67.0,67.0,29.75,North,350,0.0,4.0,99,0.02,,,1.39,,2013-09-03 23:04:00,
2013-09-03 19:12:00,67.0,67.0,29.75,North,350,0.0,4.0,99,0.02,,,1.39,,2013-09-03 23:12:00,
2013-09-03 19:23:00,67.0,67.0,29.75,North,350,0.0,4.0,99,0.02,,,1.39,,2013-09-03 23:23:00,
2013-09-03 19:54:00,67.0,67.0,29.74,North,10,0.0,0.0,99,0.05,,,1.56,,2013-09-03 23:54:00,
2013-09-03 20:02:00,67.0,67.0,29.74,North,10,0.0,0.0,99,0.05,,,1.56,,2013-09-04 00:02:00,
2013-09-03 20:12:00,67.0,67.0,29.74,North,10,0.0,0.0,99,0.05,,,1.56,,2013-09-04 00:12:00,
2013-09-03 20:22:00,67.0,67.0,29.75,North,10,0.0,1.0,99,0.05,,,1.56,,2013-09-04 00:22:00,
2013-09-03 20:42:00,67.0,67.0,29.76,SE,128,0.0,4.0,99,0.00,,,1.56,,2013-09-04 00:42:00,
2013-09-03 20:52:00,67.0,67.0,29.77,SSW,195,2.0,5.0,99,0.13,,,1.69,,2013-09-04 00:52:00,
2013-09-03 21:02:00,67.0,67.0,29.77,SSW,195,2.0,5.0,99,0.13,,,1.69,,2013-09-04 01:02:00,
2013-09-03 21:11:00,67.0,67.0,29.78,SW,235,0.0,5.0,100,0.00,,,1.75,,2013-09-04 01:11:00,
2013-09-03 21:12:00,67.0,67.0,29.77,SSW,195,2.0,5.0,99,0.13,,,1.69,,2013-09-04 01:12:00,
2013-09-03 21:22:00,67.0,67.0,29.78,SSW,200,0.0,1.0,99,0.00,,,1.75,,2013-09-04 01:22:00,
2013-09-03 21:42:00,67.0,67.0,29.78,SW,235,0.0,5.0,100,0.00,,,1.75,,2013-09-04 01:42:00,
2013-09-03 21:53:00,67.0,67.0,29.78,SW,235,0.0,5.0,100,0.00,,,1.75,,2013-09-04 01:53:00,
2013-09-03 22:02:00,67.0,67.0,29.78,SW,235,0.0,5.0,100,0.00,,,1.75,,2013-09-04 02:02:00,
2013-09-03 22:22:00,68.0,68.0,29.79,SSW,199,0.0,4.0,100,0.00,,,1.76,,2013-09-04 02:22:00,
2013-09-03 22:43:00,68.0,68.0,29.80,SSW,206,0.0,5.0,100,0.00,,,1.76,,2013-09-04 02:43:00,
2013-09-03 22:52:00,68.0,68.0,29.80,SSW,201,3.0,7.0,100,0.00,,,1.76,,2013-09-04 02:52:00,
2013-09-03 23:11:00,68.0,68.0,29.80,SSW,196,0.0,7.0,100,0.00,,,1.76,,2013-09-04 03:11:00,
2013-09-03 23:22:00,68.0,68.0,29.80,SW,214,4.0,5.0,100,0.00,,,1.76,,2013-09-04 03:22:00,
2013-09-03 23:35:00,68.0,68.0,29.80,SW,214,4.0,5.0,100,0.00,,,1.76,,2013-09-04 03:35:00,
2013-09-03 23:54:00,68.0,68.0,29.79,SW,234,2.0,5.0,100,0.00,,,1.76,,2013-09-04 03:54:00,